Showing default

TELKOM 3S, 41944

Orbit data source: Space-Track

TELKOM 3S, 41944 is a payload satellite owned by Telkom (ID) in GEO that was launched on Tue, 14 Feb 2017 UTC via an ARIANE 5ECA launch vehicle from the French Guiana (FRGUI). Payload-class satellites include a variety of spacecraft equipped with specific instruments for various scientific and technological missions. These include communications satellites like Starlink; space stations such as the ISS; scientific satellites like the Hubble; Earth observation satellites from companies like Planet Labs, Umbra, and HawkEye 360; GPS; miniature CubeSats for education and research; and military/defense satellites.

Not visible in the next 10 days
Identifier
41944, 2017-007A
Orbit
GEO
Country
Flag of UnknownUnknown / INDO
Related business
Manufacturer
Thales Alenia
Mission
Operational Commercial Communications
Bus & Motor
SPACEBUS 4000B2, S400
Mass
3,500 kg wet, ~2,000 kg dry
Launch date (UTC)
2017-02-14 (9 years ago)
Launch vehicle
ARIANE 5ECA
Launch site
French Guiana (FRGUI)
Object type
Payload
Rocket body
Debris
Shape & HBR
Box + 2 Pan, 18.5 m
Radar Cross Section
31.794 m², Large (>1 m²)

Expand to show TLE details & history
Last TLE update: 6 hours ago

TLE from 6 hours ago
0 TELKOM 3S
1 41944U 17007A   25293.28967679 -.00000360  00000-0  00000-0 0  9992
2 41944   0.0420  64.2071 0002534 158.8725  28.2263  1.00271558 31736
Epoch: 2025-10-20T06:57Z
TLE epoch observation values (Epoch: 2025-10-20T06:57:08.074Z)
Latitude
0.01447°
Longitude
118.01535°
Altitude
35,776.707 km
Speed
3.075 km/s
True Right ascension
16h 45m 10s
True Declination
0° 00' 52"
Sunlit
Object was in daylight at epoch
Visualization orbit readout
Latitude
Unknown
Longitude
Unknown
Altitude
Unknown
Speed
Unknown
Apparent Right ascension
Unknown
Apparent Declination
Unknown
Sunlit
N/A
Visualization observer readout
Local Sidereal Time
07:30:41
Azimuth
Unknown
Elevation
Unknown
Doppler factor
Unknown
Orbital elements
Apogee altitude
35,798.414 km
Perigee altitude
35,777.044 km
Semi-major axis
42,165.866 km
Eccentricity
0.00025
Inclination
0.042°
RAAN
64.2071°
Arg. of periapsis
158.8725°
True anomaly
28.24004°
Mean anomaly
28.2263°
Eccentric anomaly
28.23317°
Mean motion
0.25067 °/min
Orbital period
1,436.15 mins
BSTAR
0
Loading maneuver chart data...
Computing Atmospheric mass density...
Loading historical data...
Loading historical data...
Loading historical data...
Loading historical data...
Loading historical data...
Loading historical data...
Loading historical data...
Other satellites on launch #7 in the year 2017 (2017-02-14 UTC)

Documentation

Showing up to 5 results
|